[ hide orbit diagram ]
For accurate long-term ephemerides, please instead use our Horizons system.This orbit viewer was implemented using two-body methods, and hence should not be used for determining accurate long-term trajectories (over several years or decades) or planetary encounter circumstances.
Orbital Elements at Epoch 2459000.5 (2020-May-31.0) TDB
Reference: JPL 14 (heliocentric ecliptic J2000)
Element | Value | Uncertainty (1-sigma) | Units |
e | .1244452275566012 | 4.3804e-08 | |
a | 3.194264667712707 | 3.4139e-08 | au |
q | 2.796753674263188 | 1.4186e-07 | au |
i | 5.601839686563427 | 6.0945e-06 | deg |
node | 42.48763519360604 | 5.3933e-05 | deg |
peri | 259.9130912486348 | 5.9579e-05 | deg |
M | 117.8181332794683 | 2.5636e-05 | deg |
tp | 2458318.060100862712 (2018-Jul-18.56010086) | 0.00014782 | TDB |
period | 2085.233884215996 5.71 | 3.343e-05 9.153e-08 | d yr |
n | .1726425043852346 | 2.7677e-09 | deg/d |
Q | 3.591775661162226 | 3.8388e-08 | au |
|
| | Orbit Determination Parameters
Additional Information
|
[ show covariance matrix ]
Physical Parameter Table
Parameter |
Symbol |
Value |
Units |
Sigma |
Reference |
Notes |
absolute magnitude |
H |
15.4 |
|
n/a |
MPO418331 |
|
|
249328 (2008 UK325) Discovered 2008-Oct-31 by Spacewatch at Kitt Peak |
Reference: 20100824/Numbers.arc | Last Updated: 2010-08-27 |
|
[ show close-approach data ]
|